Location: Mentone
(34.5413°N, 85.5351°W)
Time: 01:48:51
(UTC-05:00)

Cosmos 2026 Rocket - Visible Passes

Search period start: 23 May 2018 00:00
Search period end: 02 June 2018 00:00
Orbit: 940 x 1001 km, 82.9° (Epoch: 22 May)

Date Brightness Start Highest point End Pass type
(mag) Time Alt. Az. Time Alt. Az. Time Alt. Az.
23 May 6.1 01:04:47 10° NW 01:06:52 14° WNW 01:06:52 14° WNW visible
23 May 5.8 21:58:05 10° NE 22:01:21 15° ENE 22:01:36 15° ENE visible
23 May 4.4 23:41:03 10° NNW 23:46:10 58° NW 23:46:10 58° NW visible
24 May 5.1 22:20:27 10° NNE 22:25:29 27° ENE 22:25:29 27° ENE visible
25 May 5.1 00:05:21 10° NNW 00:10:02 34° WNW 00:10:02 34° WNW visible
25 May 4.3 22:43:43 10° N 22:49:21 50° ENE 22:49:21 50° ENE visible
26 May 5.8 00:30:20 10° NW 00:33:55 19° WNW 00:33:55 19° WNW visible
26 May 5.9 21:26:13 10° NE 21:27:33 11° ENE 21:28:41 10° E visible
26 May 3.9 23:07:26 10° N 23:13:15 80° NNW 23:13:15 80° NNW visible
27 May 5.3 21:47:21 10° NNE 21:51:53 21° ENE 21:52:36 21° E visible
27 May 4.6 23:31:34 10° NNW 23:37:10 46° W 23:37:10 46° W visible
28 May 4.5 22:10:21 10° N 22:16:02 39° ENE 22:16:31 38° E visible
28 May 5.5 23:56:11 10° NW 00:00:58 25° W 00:01:05 25° W visible
29 May 3.8 22:33:54 10° N 22:40:01 73° E 22:40:27 70° ESE visible
30 May 6.2 00:22:06 10° WNW 00:24:26 12° W 00:25:01 12° W visible
30 May 5.6 21:14:29 10° NE 21:18:08 16° ENE 21:19:50 15° E visible
30 May 4.1 22:57:50 10° NNW 23:03:50 60° W 23:04:24 58° WSW visible
31 May 4.8 21:37:04 10° NNE 21:42:21 30° ENE 21:43:48 27° E visible
31 May 5.1 23:22:14 10° NNW 23:27:31 32° W 23:28:22 31° WSW visible
01 Jun 4.1 22:00:25 10° N 22:06:24 56° E 22:07:47 46° SE visible
01 Jun 5.9 23:47:22 10° NW 23:51:03 17° W 23:52:22 16° W visible
